Regional Weather Roundup
Issued by NWS

Home | Current Version | Previous Version | Graphics & Text | Print | Product List | Glossary On
Versions: 1 2 3 4 5 6 7 8 9 10 11 12 13 14 15 16 17 18 19 20 21 22 23 24 25 26 27 28 29 30 31 32 33 34 35 36 37 38 39 40 41 42 43 44 45 46 47 48 49 50
000
ASUS43 KFSD 220710
RWRSD

WEATHER ROUNDUP FOR SOUTH DAKOTA
NATIONAL WEATHER SERVICE SIOUX FALLS SD
100 AM CST MON DEC 22 2014

NOTE: "FAIR" INDICATES FEW OR NO CLOUDS BELOW 12,000 FEET WITH NO
SIGNIFICANT WEATHER AND/OR OBSTRUCTIONS TO VISIBILITY.


SDZ001>005-009-010-012>017-220800-
NORTHWEST AND NORTH CENTRAL SOUTH DAKOTA

CITY           SKY/WX    TMP DP  RH WIND       PRES   REMARKS
BUFFALO          N/A     39  33  79 W32G41    29.40S
FAITH            N/A     39  35  86 NW18G25   29.45R
MOBRIDGE       FOG       29  28  96 CALM      29.40F VSB 1/2
$$

SDZ012>016-024>037-041>051-057-063-072>074-220800-
SOUTHWEST AND SOUTH CENTRAL SOUTH DAKOTA

CITY           SKY/WX    TMP DP  RH WIND       PRES   REMARKS
RAPID CTY ARPT CLOUDY    39  33  79 NW29G40   29.50R
PIERRE         MIX PCPN  30  28  92 CALM      29.43R
CUSTER         PTCLDY    33  24  69 VRB7      29.49R WCI  27
ELLSWORTH AFB  LGT RAIN  38  35  89 NW31G38   29.50R
PHILIP         LGT RAIN  40  37  89 NW14      29.47S
PINE RIDGE     LGT RAIN  36  32  85 SW3       29.53S
SPEARFISH      MOCLDY    36  32  87 W18G26    29.56S
WINNER         CLOUDY    39  32  76 W9        29.44S
$$

SDZ004>011-016>023-039-040-220800-
NORTHEAST SOUTH DAKOTA

CITY           SKY/WX    TMP DP  RH WIND       PRES   REMARKS
ABERDEEN       CLOUDY    36  33  89 SE3       29.45F
WATERTOWN      CLOUDY    36  35  96 S16       29.46F
SISSETON         N/A     34  34 100 S9        29.49F WCI  27
$$

SDZ017-020-022-023-036>040-048>070-220800-
SOUTHEAST SOUTH DAKOTA

CITY           SKY/WX    TMP DP  RH WIND       PRES   REMARKS
SIOUX FALLS    LGT RAIN  40  38  93 S18       29.53F
HURON          MOCLDY    37  34  89 S13       29.44S
CHAMBERLAIN    MOCLDY    33  31  92 W7        29.44R WCI  27
MITCHELL       LGT RAIN  38  36  92 S13       29.47F
YANKTON        CLOUDY    39  37  93 S7        29.53F
$$

ABBREVIATIONS USED IN REMARKS
   TC - TEMPERATURE IN CELSIUS
  WCI - WIND CHILL INDEX
   HX - HEAT INDEX
  VSB - VISIBILITY




USA.gov is the U.S. government's official web portal to all federal, state and local government web resources and services.